[[{"header":{"parameterUnit":"m.s-1","parameterCategory":1,"la1":30.2991,"la2":30.254,"lo1":-89.0895,"lo2":-89.0444,"dy":0.0017,"dx":0.0017,"nx":28,"ny":28,"refTime":"2025-03-03T03:00:00:Z","depth":0,"parameterNumber":2,"parameterNumberName":"U-component_of_WINDS"},"data":[0,0,0,0,0,0,0,0,0,0,0,0,0,0,0,0,0,0,0,0,0,0,0,0,0,0,0,0,0,0,0,0,0,0,0,0,0,0,0,0,0,0,0,0,0,0,0,0,0,0,0,0,0,0,0,0,0,0,-5.23,-5.23,0,-5.2292,-5.2292,-5.2292,-5.2187,-5.2184,-5.2181,-5.2179,-5.2172,-5.2175,-5.2177,0,0,0,0,0,0,0,0,0,0,0,0,0,-5.2226,-5.2228,-5.23,-5.23,-5.23,-5.2292,-5.2292,-5.2292,-5.2187,-5.2184,-5.2181,-5.2178,-5.2172,-5.2174,-5.2177,0,0,0,0,0,0,0,0,0,0,0,0,0,-5.2243,-5.2229,-5.23,-5.2247,-5.2242,-5.2292,-5.2292,-5.2292,-5.2188,-5.2184,-5.218,-5.2176,-5.2171,-5.2174,-5.2178,-5.2279,0,0,-5.2188,-5.219,0,0,0,0,0,0,0,0,-5.2242,-5.2245,-5.2254,-5.225,-5.2245,-5.2236,-5.2264,-5.2288,-5.2189,-5.2208,-5.2179,-5.2174,-5.2197,-5.2198,-5.2205,-5.2279,-5.2278,-5.2188,-5.2191,-5.2192,-5.2193,0,0,0,0,0,0,0,-5.2241,-5.2245,-5.2297,-5.2255,-5.2249,-5.2224,-5.2222,-5.2268,-5.2225,-5.2206,-5.2199,-5.2199,-5.2194,-5.2202,-5.2204,-5.2278,-5.2188,-5.2191,-5.2194,-5.2195,-5.2435,-5.2439,0,0,0,0,0,0,-5.2247,-5.2245,-5.2297,-5.2297,-5.2233,-5.2228,-5.2226,-5.2243,-5.2224,-5.2218,-5.2203,-5.2194,-5.2198,-5.2201,-5.2204,-5.2321,-5.2192,-5.2195,-5.2197,-5.2431,-5.2436,-5.2441,0,0,0,0,0,0,-5.2246,-5.2252,-5.2297,-5.2269,-5.2272,-5.2234,-5.2254,-5.2245,-5.2253,-5.2222,-5.2214,-5.2219,-5.2195,-5.2199,-5.2261,-5.2319,-5.2197,-5.22,-5.2426,-5.2433,-5.2439,-5.2556,0,0,0,0,0,0,-5.2244,-5.2253,-5.229,-5.227,-5.2274,-5.2354,-5.2258,-5.2248,-5.226,-5.2249,-5.2235,-5.2229,-5.2192,-5.2257,-5.2265,-5.2322,-5.2203,-5.2421,-5.2429,-5.2437,-5.2547,-5.2566,-5.2582,0,0,0,0,0,-5.2242,-5.2324,-5.2292,-5.2299,-5.232,-5.2358,-5.236,-5.2316,-5.2265,-5.2302,-5.2282,-5.2229,-5.2312,-5.2264,-5.2272,-5.2331,-5.2417,-5.2427,-5.2436,-5.2539,-5.2562,-5.2582,0,0,0,0,0,0,-5.2351,-5.232,-5.2285,-5.2363,-5.2364,-5.234,-5.2385,-5.2342,-5.2358,-5.2347,-5.2292,-5.229,-5.2361,-5.2352,-5.2299,-5.2429,-5.2355,-5.2367,-5.2431,-5.2453,-5.247,-5.2469,-5.2206,0,0,0,0,0,-5.2384,-5.2417,-5.2388,-5.246,-5.2462,-5.2425,-5.2439,-5.2405,-5.2404,-5.2404,-5.2388,-5.239,-5.2416,-5.2434,-5.2457,-5.2546,-5.2542,-5.2591,-5.2609,-5.2624,-5.2634,-5.268,-5.2702,-5.2473,-5.2473,-5.2472,0,0,-5.2453,-5.244,-5.2464,-5.2481,-5.2478,-5.2513,-5.2425,-5.2466,-5.2492,-5.241,-5.2467,-5.2457,-5.2455,-5.2531,-5.2564,-5.2526,-5.2696,-5.2636,-5.2648,-5.265,-5.2692,-5.2714,-5.2733,-5.2479,-5.2478,-5.2477,0,0,-5.2595,-5.259,-5.2648,-5.2647,-5.2643,-5.2618,-5.2633,-5.2616,-5.2605,-5.2662,-5.2602,-5.2633,-5.2679,-5.268,-5.2687,-5.2834,-5.2785,-5.2843,-5.2934,-5.298,-5.2998,-5.3014,-5.3065,-5.3084,-5.2854,-5.2854,-5.2854,0,-5.2681,-5.2731,-5.2684,-5.2729,-5.2739,-5.2668,-5.2727,-5.2728,-5.2733,-5.2741,-5.27,-5.2757,-5.2751,-5.2826,-5.2862,-5.2871,-5.2885,-5.2842,-5.2999,-5.3014,-5.3028,-5.3076,-5.3096,-5.2861,-5.286,-5.2859,-5.2859,0,-5.2836,-5.2872,-5.292,-5.2926,-5.2941,-5.2994,-5.2955,-5.2977,-5.2943,-5.2923,-5.2982,-5.2973,-5.2992,-5.3009,-5.2976,-5.308,-5.3057,-5.3009,-5.2933,-5.3058,-5.3102,-5.312,-5.2871,-5.2868,-5.2866,-5.2864,0,0,-5.3043,-5.3024,-5.3042,-5.3044,-5.3036,-5.3064,-5.3114,-5.3133,-5.3152,-5.3159,-5.3199,-5.3241,-5.3197,-5.3205,-5.3172,-5.3213,-5.3329,-5.3159,-5.3158,-5.3189,-5.3442,-5.3477,-5.3499,-5.3298,-5.3302,-5.3304,-5.3442,0,-5.3179,-5.3261,-5.3222,-5.331,-5.3342,-5.3277,-5.3321,-5.3321,-5.3305,-5.3331,-5.3313,-5.3343,-5.3282,-5.3287,-5.3325,-5.3307,-5.3378,-5.3297,-5.3334,-5.3336,-5.3334,-5.3522,-5.3558,-5.3688,-5.3459,-5.3462,-5.3464,0,-5.3347,-5.3361,-5.3452,-5.3439,-5.3451,-5.3491,-5.3505,-5.3532,-5.3532,-5.3517,-5.3527,-5.3486,-5.3535,-5.3463,-5.353,-5.3475,-5.3489,-5.3483,-5.3487,-5.3486,-5.3405,-5.3525,-5.3729,-5.3747,-5.3491,-5.3489,-5.3487,0,-5.3487,-5.3529,-5.3588,-5.3592,-5.3579,-5.3609,-5.3605,-5.3601,-5.3615,-5.3629,-5.3638,-5.3658,-5.3668,-5.3685,-5.3651,-5.3602,-5.3722,-5.3647,-5.3711,-5.3712,-5.3736,-5.3734,-5.3943,-5.375,-5.375,-5.375,-5.3749,0,-5.3641,-5.3699,-5.3651,-5.3687,-5.375,-5.3706,-5.377,-5.3759,-5.3757,-5.3791,-5.3737,-5.377,-5.3724,-5.3753,-5.3727,-5.3786,-5.3792,-5.3781,-5.3772,-5.3784,-5.3785,-5.379,-5.3779,-5.3755,-5.3754,-5.3753,-5.3752,0,-5.3806,-5.3776,-5.3837,-5.382,-5.3818,-5.3865,-5.3851,-5.3885,-5.3866,-5.3909,-5.3917,-5.3887,-5.3919,-5.3887,-5.3917,-5.3899,-5.3978,-5.3958,-5.3977,-5.3971,-5.4035,-5.4028,-5.4251,-5.4278,-5.4071,-5.4073,-5.4075,0,-5.3905,-5.3947,-5.3936,-5.3955,-5.3954,-5.3985,-5.4,-5.3959,-5.3977,-5.3982,-5.4015,-5.4042,-5.406,-5.4114,-5.4096,-5.4118,-5.4097,-5.4174,-5.41,-5.411,-5.4096,-5.4092,-5.4096,-5.4188,-5.419,-5.4192,-5.4194,0,-5.4082,-5.4066,-5.4089,-5.4107,-5.4126,-5.4139,-5.4148,-5.4166,-5.4125,-5.4148,-5.4179,-5.4194,-5.4225,-5.4252,-5.427,-5.4266,-5.4223,-5.4218,-5.4233,-5.4244,-5.4252,-5.4247,-5.4015,-5.4212,-5.421,-5.4209,-5.4208,-5.4207,-5.4215,-5.425,-5.4248,-5.4276,-5.4278,-5.4288,-5.4319,-5.4304,-5.433,-5.4351,-5.4326,-5.4365,-5.4366,-5.4385,-5.4387,-5.4417,-5.4385,-5.4408,-5.4413,-5.4418,-5.4427,-5.4251,-5.4421,-5.442,-5.442,-5.4419,-5.4419,0,-5.4388,-5.4384,-5.441,-5.4424,-5.4446,-5.4406,-5.4414,-5.4435,-5.4469,-5.4474,-5.4494,-5.4531,-5.4558,-5.4543,-5.4566,-5.4594,-5.4575,-5.4601,-5.4597,-5.4597,-5.4456,-5.4439,-5.4616,-5.4616,-5.4616,-5.4616,-5.4616,-5.4616,-5.448,-5.4537,-5.4521,-5.458,-5.4575,-5.4612,-5.462,-5.463,-5.4633,-5.4676,-5.4698,-5.4689,-5.4686,-5.4709,-5.4732,-5.4727,-5.4737,-5.477,-5.4758,-5.4626,-5.4607,-5.4588,-5.4572,-5.4774,-5.4774,-5.4896,-5.4897,-5.4898]},{"header":{"parameterUnit":"m.s-1","parameterCategory":1,"la1":30.2991,"la2":30.254,"lo1":-89.0895,"lo2":-89.0444,"dy":0.0017,"dx":0.0017,"nx":28,"ny":28,"refTime":"2025-03-03T03:00:00:Z","depth":0,"parameterNumber":3,"parameterNumberName":"V-component_of_WINDS"},"data":[0,0,0,0,0,0,0,0,0,0,0,0,0,0,0,0,0,0,0,0,0,0,0,0,0,0,0,0,0,0,0,0,0,0,0,0,0,0,0,0,0,0,0,0,0,0,0,0,0,0,0,0,0,0,0,0,0,0,1.7023,1.7023,0,1.7055,1.7056,1.7056,1.7133,1.7135,1.7136,1.7138,1.7167,1.7166,1.7165,0,0,0,0,0,0,0,0,0,0,0,0,0,1.7027,1.7027,1.7023,1.7023,1.7024,1.7055,1.7056,1.7056,1.7133,1.7135,1.7137,1.7139,1.7167,1.7166,1.7165,0,0,0,0,0,0,0,0,0,0,0,0,0,1.7039,1.7027,1.7023,1.7066,1.707,1.7055,1.7056,1.7056,1.7133,1.7135,1.7137,1.714,1.7167,1.7166,1.7165,1.711,0,0,1.7162,1.7161,0,0,0,0,0,0,0,0,1.7038,1.7039,1.7059,1.7063,1.7068,1.7093,1.7068,1.7074,1.7132,1.7109,1.7138,1.7141,1.714,1.7141,1.7142,1.7111,1.7112,1.7162,1.7161,1.7161,1.716,0,0,0,0,0,0,0,1.7037,1.7038,1.7036,1.706,1.7065,1.7084,1.7088,1.7069,1.711,1.7111,1.7117,1.712,1.7143,1.7143,1.7143,1.7113,1.7162,1.7161,1.716,1.716,1.7042,1.7039,0,0,0,0,0,0,1.703,1.7036,1.7035,1.7037,1.7059,1.7082,1.7086,1.7082,1.7111,1.7117,1.7118,1.7123,1.7144,1.7144,1.7144,1.7083,1.7161,1.716,1.7159,1.7044,1.7041,1.7038,0,0,0,0,0,0,1.703,1.703,1.7033,1.7038,1.704,1.7079,1.7074,1.7082,1.7082,1.7116,1.7123,1.711,1.7145,1.7146,1.7119,1.7085,1.7159,1.7158,1.7047,1.7043,1.704,1.6959,0,0,0,0,0,0,1.703,1.7029,1.7008,1.7037,1.704,1.7007,1.7072,1.708,1.708,1.7088,1.7111,1.7117,1.7147,1.712,1.7118,1.7085,1.7157,1.705,1.7045,1.7041,1.6965,1.6953,1.6943,0,0,0,0,0,1.703,1.6982,1.7007,1.7006,1.7014,1.7005,1.7006,1.7044,1.7077,1.7057,1.7079,1.7116,1.709,1.7117,1.7115,1.7081,1.7052,1.7047,1.7041,1.697,1.6955,1.6943,0,0,0,0,0,0,1.6946,1.6987,1.7014,1.6975,1.6986,1.7018,1.6993,1.7027,1.7028,1.7034,1.708,1.7084,1.7051,1.7064,1.7093,1.7031,1.7077,1.7071,1.7024,1.701,1.6999,1.6997,1.7156,0,0,0,0,0,1.6923,1.6913,1.6949,1.6911,1.6916,1.6953,1.695,1.6979,1.6992,1.6996,1.7017,1.7027,1.7022,1.7017,1.7013,1.6968,1.6975,1.6944,1.6933,1.6924,1.6918,1.6897,1.6884,1.702,1.702,1.702,0,0,1.6875,1.6897,1.6887,1.6895,1.6907,1.6895,1.6956,1.6941,1.6933,1.6994,1.697,1.6986,1.7,1.6964,1.695,1.6974,1.6882,1.6917,1.6909,1.6908,1.689,1.6877,1.6866,1.7016,1.7017,1.7018,0,0,1.6782,1.6797,1.6768,1.678,1.6799,1.6825,1.6818,1.6846,1.6859,1.6837,1.6884,1.6875,1.6863,1.6873,1.6876,1.6792,1.6826,1.6789,1.6731,1.6711,1.67,1.6691,1.6662,1.6651,1.6783,1.6783,1.6783,0,1.672,1.6705,1.6749,1.6731,1.6734,1.6792,1.6764,1.6773,1.6788,1.6789,1.6816,1.6806,1.682,1.6788,1.6768,1.6768,1.6763,1.6786,1.6698,1.669,1.6682,1.6655,1.6643,1.6778,1.6779,1.6779,1.678,0,1.6629,1.6618,1.6592,1.6609,1.6609,1.6586,1.6626,1.6621,1.6651,1.6674,1.6652,1.6671,1.6674,1.6669,1.6696,1.6642,1.6657,1.669,1.6738,1.6663,1.6639,1.6629,1.6772,1.6773,1.6775,1.6776,0,0,1.6481,1.6525,1.6515,1.6525,1.6551,1.6544,1.6524,1.6529,1.6525,1.6534,1.652,1.6511,1.6544,1.6548,1.6577,1.6559,1.6493,1.6596,1.6597,1.6577,1.6437,1.6412,1.6399,1.6517,1.6515,1.6514,1.6436,0,1.6394,1.6365,1.6405,1.6366,1.6358,1.6415,1.6398,1.6413,1.6435,1.6431,1.6455,1.6449,1.6492,1.6495,1.648,1.6504,1.6466,1.6511,1.6504,1.6503,1.6498,1.6386,1.6358,1.6283,1.6427,1.6425,1.6424,0,1.6289,1.6297,1.6258,1.6291,1.6288,1.6273,1.6282,1.6278,1.6296,1.6314,1.6321,1.6357,1.6341,1.6388,1.6367,1.6397,1.6397,1.6409,1.6407,1.6407,1.6459,1.6384,1.626,1.6249,1.6409,1.641,1.6411,0,1.6187,1.6187,1.6165,1.6171,1.6208,1.6196,1.6211,1.6233,1.6234,1.6242,1.6244,1.6249,1.6252,1.6256,1.6293,1.6324,1.6268,1.6318,1.6283,1.6282,1.6268,1.6268,1.6143,1.6267,1.6267,1.6267,1.6268,0,1.6086,1.606,1.612,1.6106,1.608,1.6127,1.6099,1.612,1.6139,1.613,1.6179,1.617,1.622,1.6216,1.6245,1.6225,1.6225,1.6239,1.6247,1.6235,1.6233,1.6235,1.6241,1.6265,1.6265,1.6266,1.6266,0,1.5966,1.6005,1.5985,1.6023,1.6033,1.6011,1.6044,1.6033,1.606,1.6049,1.6049,1.6091,1.6089,1.6128,1.6133,1.6153,1.6119,1.6136,1.6113,1.6119,1.6082,1.6085,1.5954,1.594,1.6072,1.6071,1.607,0,1.5899,1.5882,1.5919,1.5918,1.5931,1.5928,1.5931,1.5978,1.5979,1.6001,1.5987,1.5991,1.5996,1.5991,1.6021,1.6027,1.6044,1.5998,1.6045,1.6034,1.6045,1.6046,1.6045,1.5988,1.5986,1.5985,1.5984,0,1.5777,1.5799,1.5802,1.5812,1.5815,1.5825,1.5838,1.5834,1.5886,1.5884,1.5885,1.5889,1.5897,1.5899,1.5911,1.5926,1.5964,1.5969,1.5962,1.5949,1.5937,1.5944,1.6087,1.5972,1.5973,1.5974,1.5974,1.5975,1.5683,1.5671,1.5696,1.5699,1.5714,1.5726,1.5719,1.5747,1.5748,1.5759,1.5787,1.5784,1.5806,1.5826,1.5838,1.5836,1.5859,1.5847,1.5844,1.5841,1.5835,1.5937,1.5838,1.5838,1.5839,1.5839,1.5839,0,1.5564,1.5585,1.5587,1.5605,1.5607,1.5645,1.5662,1.5662,1.5659,1.5677,1.5682,1.5684,1.5688,1.572,1.5728,1.572,1.5738,1.5721,1.5722,1.5725,1.5813,1.5819,1.5707,1.5707,1.5707,1.5707,1.5707,1.5707,1.5503,1.5485,1.551,1.5501,1.5522,1.552,1.5527,1.5539,1.5554,1.5555,1.5559,1.5581,1.5605,1.5616,1.5622,1.5632,1.5632,1.561,1.5625,1.5706,1.5719,1.5731,1.5737,1.5609,1.5609,1.5538,1.5537,1.5536]}]]